This is the latest recevied weather packets stored in our database for station/object AJ5AG. If no packets are shown the sender has not sent any weather packets the latest 10 day(s).
| Time | Temp. | Humidity | Pressure | Rain* | Wind** | Luminosity | Snow |
|---|---|---|---|---|---|---|---|
| 1777223485 | 26.67° C | 83% | 1013.6 hPa | 0 mm | - | 307 W/m² | - |
| 1777223183 | 26.67° C | 82% | 1013.6 hPa | 0 mm | - | 196 W/m² | - |
| 1777222880 | 26.67° C | 81% | 1013.7 hPa | 0 mm | - | 145 W/m² | - |
| 1777222577 | 26.67° C | 81% | 1013.5 hPa | 0 mm | - | 173 W/m² | - |
| 1777222275 | 26.67° C | 81% | 1013.5 hPa | 0 mm | - | 192 W/m² | - |
| 1777221973 | 26.67° C | 82% | 1013.6 hPa | 0 mm | - | 157 W/m² | - |
| 1777221668 | 26.67° C | 82% | 1013.5 hPa | 0 mm | - | 178 W/m² | - |
| 1777221365 | 26.11° C | 84% | 1013.7 hPa | 0 mm | - | 179 W/m² | - |
| 1777221063 | 26.11° C | 84% | 1013.7 hPa | 0 mm | - | 170 W/m² | - |
| 1777220762 | 26.11° C | 84% | 1013.8 hPa | 0 mm | - | 139 W/m² | - |
| 1777220459 | 26.11° C | 85% | 1013.6 hPa | 0 mm | - | 132 W/m² | - |
| 1777220158 | 25.56° C | 85% | 1013.5 hPa | 0 mm | - | 119 W/m² | - |
| 1777219855 | 25.56° C | 85% | 1013.7 hPa | 0 mm | - | 105 W/m² | - |
| 1777219553 | 25.56° C | 86% | 1013.5 hPa | 0 mm | - | 114 W/m² | - |
| 1777219249 | 25.56° C | 87% | 1013.5 hPa | 0 mm | - | 112 W/m² | - |
| 1777218944 | 25.56° C | 87% | 1013.5 hPa | 0 mm | - | 89 W/m² | - |
| 1777218641 | 25.56° C | 87% | 1013.3 hPa | 0 mm | - | 71 W/m² | - |
| 1777218336 | 25.56° C | 88% | 1013.4 hPa | 0 mm | - | 52 W/m² | - |
| 1777218033 | 25° C | 88% | 1013.3 hPa | 0 mm | - | 67 W/m² | - |
| 1777217728 | 25° C | 88% | 1013.2 hPa | 0 mm | - | 47 W/m² | - |
| 1777217425 | 25° C | 88% | 1013.1 hPa | 0 mm | - | 50 W/m² | - |
| 1777217121 | 25° C | 88% | 1013.1 hPa | 0 mm | - | 48 W/m² | - |
| 1777216817 | 25° C | 88% | 1013.2 hPa | 0 mm | - | 52 W/m² | - |
| 1777216515 | 25° C | 88% | 1013.1 hPa | 0 mm | - | 48 W/m² | - |
| 1777216210 | 25° C | 89% | 1012.9 hPa | 0 mm | - | 66 W/m² | - |
* Rain latest hour (hover to see other rain measurements)
** Current wind speed in m/s (hover to see current wind gust speed)